Regional Weather Roundup
Issued by NWS State College, PA

Home | Current Version | Previous Version | Text Only | Print | Product List | Glossary On
Versions: 1 2 3 4 5 6 7 8 9 10 11 12 13 14 15 16 17 18 19 20 21 22 23 24 25 26 27 28 29 30 31 32 33 34 35 36 37 38 39 40 41 42 43 44 45 46 47 48 49 50
000
ASUS41 KCTP 281710
RWRCTP

REGIONAL WEATHER ROUNDUP
NATIONAL WEATHER SERVICE STATE COLLEGE PA
1200 PM EST TUE FEB 28 2017

Note: "fair" indicates few or no clouds below 12,000 feet with no
significant weather and/or obstructions to visibility.

* = STATION THAT DOES NOT REPORT PRECIPITATION /E.G. RAIN...SNOW...ETC/
    THUNDER OR FOG.

PAZ002>004-007>009-013>016-020>023-029>032-281800-
WESTERN PENNSYLVANIA

CITY           SKY/WX    TMP DP  RH WIND       PRES   REMARKS
ERIE           CLOUDY    57  38  48 S21       30.04F
MEADVILLE      CLOUDY    55  37  50 S8        30.06F
FRANKLIN*      PTSUNNY   55  37  50 S12       30.10F
NEW CASTLE     CLOUDY    55  37  50 VRB6      30.08F
BEAVER COUNTY  CLOUDY    54  37  54 SE8       30.09F
BUTLER*        CLOUDY    55  37  50 S8        30.13F
PITTSBURGH INT CLOUDY    53  39  59 SE8       30.10F
PITTSBURGH     CLOUDY    54  37  52 SE8       30.11F
INDIANA*       PTSUNNY   57  39  51 SW6G13    30.17F
LATROBE        CLOUDY    57  39  51 S9        30.15F
WASHINGTON CO* CLOUDY    52  39  62 SE6       30.13F
$$

PAZ004>006-010>012-017>019-024>028-033>037-041-042-045-046-049>053-281800-
CENTRAL PENNSYLVANIA

CITY           SKY/WX    TMP DP  RH WIND       PRES   REMARKS
BRADFORD       SUNNY     52  34  50 S13G21    30.11F
DUBOIS         PTSUNNY   54  34  46 S13G22    30.13F
CLEARFIELD       N/A    N/A N/A N/A MISG      30.16F
JOHNSTOWN      CLOUDY    52  41  66 SW7       30.16F
ALTOONA        CLOUDY    56  37  49 S7        30.18F
STATE COLLEGE  SUNNY     55  30  38 SW9       30.19F
WILLIAMSPORT   SUNNY     58  32  37 SE7       30.21F
SELINSGROVE    SUNNY     57  35  43 S8        30.24F
FT INDIANTOWN  SUNNY     56  34  43 S5        30.24F
CAPITAL CITY   MOSUNNY   59  34  39 E10       30.23F
HARRISBURG       N/A     59  36  42 SE9       30.23F
YORK           PTSUNNY   60  35  39 SE5       30.23F
$$

PAZ038>040-043-044-047-048-054-055-060>062-067>071-281800-
EASTERN PENNSYLVANIA

CITY           SKY/WX    TMP DP  RH WIND       PRES   REMARKS
SCRANTON       SUNNY     59  32  36 W6        30.22F
MOUNT POCONO   SUNNY     53  32  44 SE9       30.22F
ALLENTOWN      SUNNY     60  35  39 CALM      30.26F
QUAKERTOWN*    SUNNY     59  37  44 SW3       30.27F
READING        SUNNY     60  37  42 VRB5      30.25F
LANCASTER      SUNNY     59  38  45 VRB3      30.25F
COATESVILLE    SUNNY     59  39  47 S5        30.28F
POTTSTOWN      SUNNY     58  36  43 W5        30.28F
BLUE BELL      SUNNY     61  41  48 SE6       30.26F
DOYLESTOWN     SUNNY     60  40  47 SE5       30.26F
WILLOW GROVE   NOT AVBL
NORTH PHILA    SUNNY     62  44  51 SE7       30.29F
PHILADELPHIA   CLOUDY    61  44  53 VRB3      30.28F
$$




USA.gov is the U.S. government's official web portal to all federal, state and local government web resources and services.